Leadville, CO

1:27 PM MDT on July 27, 2017 (GMT -0600)
Lake County

Weather History for KLXV - December, 2013

Change the Weather History Date:

Monday, December 23, 2013

  Actual Average Record
Temperature  
Mean Temperature 19 °F -  
Max Temperature 24 °F 29 °F 41 °F (1986)
Min Temperature 13 °F 4 °F -31 °F (1990)
Degree Days  
Heating Degree Days 46 49  
Month to date heating degree days 1157 1109  
Since 1 July heating degree days 4384 4514  
Cooling Degree Days 0 0  
Month to date cooling degree days 0 0  
Year to date cooling degree days 0 0  
Moisture  
Dew Point 10 °F    
Average Humidity 71    
Maximum Humidity 84    
Minimum Humidity 57    
Precipitation  
Precipitation 0.08 in 0.03 in 0.30 in (1977)
Month to date precipitation 0.76 0.57  
Year to date precipitation 17.70 12.27  
Sea Level Pressure  
Sea Level Pressure 30.27 in    
Wind  
Wind Speed 8 mph (NW)    
Max Wind Speed 21 mph    
Max Gust Speed 29 mph    
Visibility 7 miles    
Events Snow    
T = Trace of Precipitation, MM = Missing Value Source: NWS Daily Summary

Daily Weather History Graph

Daily Weather History Graph

Search for Another Location

Airport or City:

Trip Planner

Search our weather history database for the weather conditions in past years. The results will help you decide how hot, cold, wet, or windy it might be!

Date:

Astronomy

Dec. 23, 2013 Rise Set
Actual Time 7:22 AM MST 4:46 PM MST
Civil Twilight 6:52 AM MST 5:17 PM MST
Nautical Twilight 6:18 AM MST 5:50 PM MST
Astronomical Twilight 5:45 AM MST 6:23 PM MST
Moon 10:57 PM MST (12/23) 10:51 AM MST (12/23)
Length of Visible Light 10h 24m
Length of Day
9h 24m
Waning Gibbous, 67% of the Moon is Illuminated
Dec 23
Waning Gibbous
Dec 25
Last Quarter
Jan 1
New
Jan 7
First Quarter
Jan 15
Full

Hourly Weather History & Observations

Time (MST) Temp. Windchill Dew Point Humidity Pressure Visibility Wind Dir Wind Speed Gust Speed Precip Events Conditions
12:24 AM 12.9 °F -0.2 °F 9.0 °F 84% 30.09 in 1.0 mi NW 10.4 mph 18.4 mph 0.01 in Snow Light Snow
12:53 AM 12.9 °F 2.6 °F 9.0 °F 84% 30.15 in 1.8 mi Variable 6.9 mph - 0.02 in Snow Light Snow
1:53 AM 12.9 °F 1.6 °F 9.0 °F 84% 30.15 in 1.8 mi WNW 8.1 mph - 0.01 in Snow Light Snow
2:30 AM 12.9 °F 2.6 °F 8.1 °F 81% 30.13 in 2.5 mi NW 6.9 mph - 0.01 in Snow Light Snow
2:44 AM 12.9 °F 1.6 °F 9.0 °F 84% 30.13 in 1.5 mi NW 8.1 mph - 0.01 in Snow Light Snow
2:53 AM 12.9 °F 1.6 °F 9.0 °F 84% 30.19 in 1.8 mi NW 8.1 mph - 0.01 in Snow Light Snow
3:41 AM 14.0 °F 3.9 °F 9.0 °F 80% 30.15 in 2.5 mi NNW 6.9 mph - 0.01 in Snow Light Snow
3:53 AM 14.0 °F 2.9 °F 9.0 °F 80% 30.19 in 1.5 mi NW 8.1 mph - 0.01 in Snow Light Snow
4:07 AM 14.0 °F 2.9 °F 9.0 °F 80% 30.16 in 2.0 mi NW 8.1 mph - 0.01 in Snow Light Snow
4:48 AM 14.0 °F 2.9 °F 8.6 °F 79% 30.17 in 3.0 mi NNW 8.1 mph - 0.01 in Snow Light Snow
4:53 AM 14.0 °F 3.9 °F 8.1 °F 77% 30.22 in 2.5 mi NW 6.9 mph - 0.01 in Snow Light Snow
5:38 AM 14.0 °F - 8.1 °F 77% 30.19 in 3.0 mi Calm Calm - 0.00 in Snow Light Snow
5:53 AM 14.0 °F 5.1 °F 9.0 °F 80% 30.26 in 2.0 mi NNW 5.8 mph - 0.01 in Snow Light Snow
6:32 AM 15.1 °F 9.4 °F 8.1 °F 74% 30.23 in 4.0 mi North 3.5 mph - 0.00 in Snow Light Snow
6:53 AM 15.1 °F 7.7 °F 7.0 °F 70% 30.30 in 7.0 mi NNW 4.6 mph - 0.00 in Snow Light Snow
7:53 AM 15.1 °F 6.4 °F 8.1 °F 74% 30.35 in 6.0 mi Variable 5.8 mph - 0.00 in Snow Light Snow
8:35 AM 16.0 °F 4.4 °F 8.1 °F 71% 30.31 in 3.0 mi NNW 9.2 mph - 0.00 in Snow Light Snow
8:53 AM 16.0 °F 5.3 °F 8.1 °F 71% 30.37 in 2.0 mi NW 8.1 mph - 0.00 in Snow Light Snow
9:11 AM 17.1 °F 7.6 °F 8.1 °F 68% 30.31 in 4.0 mi NNW 6.9 mph - 0.01 in Snow Light Snow
9:53 AM 18.0 °F 3.1 °F 7.0 °F 62% 30.37 in 8.0 mi NW 16.1 mph 24.2 mph 0.01 in Snow Light Snow
10:38 AM 19.9 °F 5.2 °F 7.0 °F 57% 30.34 in 8.0 mi NNW 17.3 mph 24.2 mph 0.00 in   Overcast
10:53 AM 19.0 °F 8.2 °F 8.1 °F 62% 30.36 in 9.0 mi WNW 9.2 mph 17.3 mph 0.00 in   Overcast
11:53 AM 19.9 °F 7.3 °F 9.0 °F 62% 30.35 in 10.0 mi NW 12.7 mph 20.7 mph N/A   Overcast
12:53 PM 21.0 °F 7.6 °F 9.0 °F 60% 30.32 in 10.0 mi NW 15.0 mph 21.9 mph N/A   Overcast
1:53 PM 21.9 °F 9.2 °F 10.0 °F 60% 30.29 in 10.0 mi NW 13.8 mph 21.9 mph N/A   Partly Cloudy
2:07 PM 21.9 °F 8.7 °F 10.9 °F 63% 30.28 in 10.0 mi NW 15.0 mph 24.2 mph 0.00 in Snow Light Snow
2:53 PM 23.0 °F 12.4 °F 12.0 °F 63% 30.29 in 10.0 mi NW 10.4 mph - 0.00 in   Mostly Cloudy
3:04 PM 23.0 °F 11.7 °F 12.0 °F 63% 30.29 in 10.0 mi NW 11.5 mph 20.7 mph N/A   Scattered Clouds
3:16 PM 21.0 °F 7.6 °F 12.0 °F 68% 30.29 in 9.0 mi NW 15.0 mph 28.8 mph 0.00 in Snow Light Snow
3:53 PM 21.0 °F 8.6 °F 12.0 °F 68% 30.31 in 10.0 mi NW 12.7 mph 26.5 mph 0.00 in   Scattered Clouds
4:30 PM 19.9 °F 6.2 °F 12.0 °F 71% 30.31 in 10.0 mi NW 15.0 mph 27.6 mph N/A   Overcast
4:51 PM 19.4 °F 9.5 °F 12.2 °F 74% 30.31 in 10.0 mi NNW 8.1 mph 18.4 mph N/A   Scattered Clouds
4:53 PM 19.9 °F 14.9 °F 12.0 °F 71% 30.33 in 10.0 mi Variable 3.5 mph 18.4 mph N/A   Scattered Clouds
5:53 PM 19.9 °F - 12.0 °F 71% 30.34 in 10.0 mi Calm Calm - N/A   Overcast
6:53 PM 19.9 °F - 12.0 °F 71% 30.33 in 10.0 mi Calm Calm - N/A   Overcast
7:53 PM 18.0 °F 8.7 °F 12.0 °F 78% 30.36 in 10.0 mi NE 6.9 mph - N/A   Overcast
8:53 PM 19.0 °F - 12.9 °F 77% 30.35 in 10.0 mi Calm Calm - N/A   Overcast
9:01 PM 19.9 °F - 12.9 °F 74% 30.33 in 10.0 mi Calm Calm - N/A   Overcast
9:26 PM 21.0 °F - 14.0 °F 74% 30.33 in 10.0 mi Calm Calm - N/A   Overcast
9:53 PM 21.0 °F - 12.9 °F 71% 30.30 in 10.0 mi Calm Calm - N/A   Overcast
10:53 PM 23.0 °F 10.1 °F 12.0 °F 63% 30.27 in 10.0 mi North 15.0 mph 19.6 mph N/A   Overcast
11:53 PM 24.1 °F 13.7 °F 12.9 °F 62% 30.24 in 10.0 mi North 10.4 mph - N/A   Overcast